Location: Unspecified
(0.0000°N, 0.0000°E)
Time: 11:22:32
(UTC+01:00)

Vanguard 1 - Visible Passes

Search period start: 05 March 2015 00:00
Search period end: 15 March 2015 00:00
Orbit: 652 x 3834 km, 34.3° (Epoch: 03 March)

Date Brightness Start Highest point End Pass type
(mag) Time Alt. Az. Time Alt. Az. Time Alt. Az.
05 Mar 13.9 00:02:52 10° NNW 00:37:06 - ENE 00:04:29 12° NNW visible
05 Mar 13.5 02:49:54 34° NNE 02:49:54 34° NNE 03:06:00 10° E visible
05 Mar 12.5 05:02:42 27° NW 05:17:43 74° NE 05:32:02 10° ESE visible
05 Mar 12.4 19:31:16 10° W 19:38:22 33° NNW 19:50:05 10° NE visible
05 Mar 13.5 21:57:38 10° NW 22:06:05 17° N 22:12:02 15° NNE visible
06 Mar14.100:57:50ENE00:57:50ENE00:24:48NNWvisible
06 Mar 13.2 03:10:38 42° NNE 03:11:31 42° NNE 03:29:21 10° E visible
06 Mar 12.3 05:23:27 24° NW 05:39:48 90° NE 05:53:36 10° SE visible
06 Mar 12.8 19:53:49 10° WNW 20:00:50 25° NNW 20:11:25 10° NNE visible
06 Mar 13.7 22:21:27 10° NNW 22:29:42 16° N 22:32:17 15° N visible
07 Mar 14.1 01:18:36 12° ENE 01:18:36 12° ENE 01:20:15 10° ENE visible
07 Mar 13.0 03:31:25 49° NNE 03:34:25 51° NNE 03:52:09 10° ESE visible
07 Mar 12.3 05:44:13 20° WNW 06:01:39 73° SW 06:14:55 10° SE visible
07 Mar 13.1 20:16:54 10° NW 20:23:34 19° NNW 20:32:43 10° NNE visible
07 Mar 13.7 22:44:53 10° NNW 22:52:27 15° N 22:52:27 15° N visible
08 Mar 13.9 01:39:24 19° ENE 01:39:24 19° ENE 01:45:06 10° ENE visible
08 Mar 12.8 03:52:12 56° N 03:57:00 63° NNE 04:14:28 10° ESE visible
08 Mar 12.4 06:05:01 16° WNW 06:23:23 58° SW 06:36:01 10° SE visible
08 Mar 13.3 20:40:33 10° NW 20:46:32 15° N 20:54:07 10° NNE visible
08 Mar 13.7 23:07:34 10° NNW 23:12:34 15° N 23:12:34 15° N visible
09 Mar 13.7 02:00:11 27° ENE 02:00:11 27° ENE 02:09:17 10° E visible
09 Mar 12.6 04:12:59 58° NNW 04:19:22 77° NE 04:36:25 10° ESE visible
09 Mar 12.6 06:25:47 11° WNW 06:45:05 44° SW 06:56:55 10° SSE visible
09 Mar 13.5 21:04:37 10° NNW 21:09:45 13° N 21:15:56 10° NNE visible
09 Mar 13.8 23:29:35 10° NNW 23:32:36 14° NNW 23:32:36 14° NNW visible
10 Mar 13.4 02:20:57 36° ENE 02:20:57 36° ENE 02:32:47 10° E visible
10 Mar 12.5 04:33:45 54° NW 04:41:30 88° SW 04:58:02 10° SE visible
10 Mar 12.8 06:49:18 10° W 07:06:53 33° SW 07:17:37 10° SSE visible
10 Mar 13.6 21:28:30 10° NNW 21:33:09 12° N 21:38:50 10° NNE visible
10 Mar 13.9 23:51:10 10° NNW 00:28:53 - E 23:52:36 12° NNW visible
11 Mar 13.2 02:41:41 47° ENE 02:41:41 47° ENE 02:55:42 10° ESE visible
11 Mar 12.5 04:54:29 47° WNW 05:03:29 72° SW 05:19:25 10° SE visible
11 Mar 13.1 19:24:09 10° NW 19:28:00 13° N 19:32:30 10° NNE visible
11 Mar 13.6 21:51:21 10° NNW 21:56:40 12° N 21:59:50 12° NNE visible
12 Mar 14.0 00:12:30 10° NNW 00:49:35 - E 00:12:34 10° NNW visible
12 Mar 12.9 03:02:23 60° ENE 03:02:23 60° ENE 03:18:07 10° ESE visible
12 Mar 12.6 05:15:10 38° W 05:25:25 58° SW 05:40:35 10° SE visible
12 Mar 13.3 19:50:33 10° N 19:50:50 10° N 19:50:57 10° N visible
12 Mar 13.6 22:13:08 10° NNW 22:19:46 14° NNE 22:19:46 14° NNE visible
13 Mar 14.0 01:10:13 13° E 01:10:13 13° E 01:11:42 10° E visible
13 Mar 12.7 03:23:00 74° E 03:23:00 74° E 03:40:08 10° ESE visible
13 Mar 12.8 05:35:47 29° W 05:47:22 46° SW 06:01:34 10° SSE visible
13 Mar 13.6 22:34:22 10° NNW 22:39:41 16° N 22:39:41 16° N visible
14 Mar 13.9 01:30:48 20° E 01:30:48 20° E 01:35:23 10° E visible
14 Mar 12.6 03:43:35 83° S 03:43:35 83° S 04:01:50 10° SE visible
14 Mar 13.0 05:56:22 21° W 06:09:28 35° SW 06:22:25 10° SSE visible
14 Mar 13.6 22:55:24 10° NNW 22:59:36 17° N 22:59:36 17° N visible
